Location: Unspecified
(0.0000°N, 0.0000°E)
Time: 00:21:20
(UTC+01:00)

Palapa 6 Rocket - Visible Passes

Search period start: 20 February 2017 00:00
Search period end: 02 March 2017 00:00
Orbit: 485 x 1221 km, 22.7° (Epoch: 19 February)

Date Brightness Start Highest point End Pass type
(mag) Time Alt. Az. Time Alt. Az. Time Alt. Az.
20 Feb 5.9 05:22:16 18° N 05:22:16 18° N 05:26:47 10° NNE visible
21 Feb 6.1 05:09:02 15° N 05:09:02 15° N 05:12:03 10° NNE visible
22 Feb 6.3 04:55:45 12° N 04:55:45 12° N 04:57:15 10° NNE visible
22 Feb 6.3 06:41:52 10° NNW 06:44:27 12° N 06:47:04 10° NNE visible
23 Feb 6.3 06:27:56 10° NNW 06:30:19 12° N 06:32:46 10° NNE visible
24 Feb 6.3 06:13:58 10° NNW 06:16:12 11° N 06:18:28 10° NNE visible
25 Feb 6.3 06:00:00 10° N 06:02:04 11° N 06:04:11 10° NNE visible
25 Feb 5.1 20:39:36 10° S 20:40:16 11° SSE 20:40:16 11° SSE visible
26 Feb 6.3 05:46:00 10° N 05:47:57 11° N 05:49:56 10° NNE visible
26 Feb 4.8 20:24:51 10° S 20:26:44 13° SSE 20:27:08 13° SSE visible
27 Feb 6.3 05:31:59 10° N 05:33:49 11° NNE 05:35:43 10° NNE visible
27 Feb 4.6 20:10:17 10° SSW 20:12:46 16° SSE 20:14:02 14° SE visible
28 Feb 6.2 05:17:55 10° N 05:19:42 11° NNE 05:21:32 10° NNE visible
28 Feb 4.5 19:55:48 10° SSW 19:58:47 19° SSE 20:00:59 13° ESE visible
01 Mar 6.2 05:04:41 11° N 05:05:35 11° NNE 05:07:24 10° NNE visible
01 Mar 4.3 19:41:21 10° SW 19:44:48 24° SSE 19:47:57 10° ESE visible
01 Mar 5.8 21:29:24 10° WSW 21:29:54 13° WSW 21:29:54 13° WSW visible
